Orbital Elements at Epoch 2459200.5 (2020-Dec-17.0) TDB
Reference: JPL 11 (heliocentric ecliptic J2000)
Element | Value | Uncertainty (1-sigma) | Units |
e | .2266187009258657 | 4.2414e-08 | |
a | 2.416539302574511 | 2.2e-08 | au |
q | 1.868906305088778 | 9.8986e-08 | au |
i | 5.738296555390276 | 5.5846e-06 | deg |
node | 74.99415781254729 | 9.1583e-05 | deg |
peri | 168.137721052441 | 9.4437e-05 | deg |
M | 302.0627252424171 | 2.9486e-05 | deg |
tp | 2459421.323242955148 (2021-Jul-25.82324295) | 0.00011441 | TDB |
period | 1372.110921621295 3.76 | 1.8737e-05 5.13e-08 | d yr |
n | .2623694588587792 | 3.5829e-09 | deg/d |
Q | 2.964172300060244 | 2.6986e-08 | au |
|
| | Orbit Determination Parameters
Additional Information
|